Date String (YYYY-MM-DD hh:mm:ss) UTC,Instrument flags,Ambient pressure (hPa),Sample flow (lpm),Bypass flow (lpm),Sample temperature (°C),Ambient temperature (°C),ASC tube jacket temperature (°C),LED temperature (°C),Box temperature (°C),Sample RH (%),Span deviation,Mass concentration (μg/m³),Mass concentration (μg/m³),Mass concentration (μg/m³)
DateTimeUTC,F1_M11,P_M11,Q1_M11,Q2_M11,T1_M11,T2_M11,T3_M11,T4_M11,T5_M11,U1_M11,ZSPAN_M11,X0_M11,X2_M11,X1_M11
2022-06-29 17:00:00,,0829.3,5.00,0.00,29.2,27.3,00.0,37.9,31.0,16.9,0000.0,0009.56,0003.65,0002.89
2022-06-29 17:01:00,,0829.2,4.98,0.00,29.2,27.3,00.0,37.9,31.0,16.7,0000.0,0009.69,0003.70,0002.87
2022-06-29 17:02:00,,0829.3,5.00,0.00,29.2,27.5,00.0,37.9,31.1,16.5,0000.0,0010.03,0003.68,0002.84
2022-06-29 17:03:00,,0829.3,5.00,0.00,29.2,27.6,00.0,38.0,31.1,16.6,0000.0,0009.90,0003.65,0002.79
2022-06-29 17:04:00,,0829.3,5.01,0.00,29.2,27.8,00.0,38.0,31.2,16.7,0000.0,0009.25,0003.58,0002.74
2022-06-29 17:05:00,,0829.3,5.01,0.00,29.2,28.0,00.0,38.0,31.2,16.7,0000.0,0009.45,0003.57,0002.70
2022-06-29 17:06:00,,0829.3,5.01,0.00,29.3,28.1,00.0,38.0,31.2,16.7,0000.0,0009.50,0003.57,0002.68
2022-06-29 17:07:00,,0829.3,4.99,0.00,29.3,27.6,00.0,38.0,31.1,16.5,0000.0,0009.93,0003.58,0002.65
2022-06-29 17:08:00,,0829.3,5.01,0.00,29.2,27.2,00.0,37.9,31.0,16.7,0000.0,0009.92,0003.58,0002.62
2022-06-29 17:09:00,,0829.2,5.00,0.00,29.2,27.2,00.0,37.9,31.0,17.0,0000.0,0010.25,0003.57,0002.59
2022-06-29 17:10:00,,0829.3,5.00,0.00,29.2,27.3,00.0,37.9,31.0,16.7,0000.0,0010.08,0003.55,0002.58
2022-06-29 17:11:00,,0829.2,5.00,0.00,29.2,27.5,00.0,37.9,31.0,16.6,0000.0,0010.12,0003.56,0002.58
2022-06-29 17:12:00,,0829.2,5.00,0.00,29.2,27.7,00.0,37.9,31.1,16.5,0000.0,0010.26,0003.57,0002.58
2022-06-29 17:13:00,,0829.3,5.01,0.00,29.2,27.9,00.0,37.9,31.2,16.4,0000.0,0009.89,0003.55,0002.57
2022-06-29 17:14:00,,0829.2,5.01,0.00,29.2,28.1,00.0,38.0,31.2,16.3,0000.0,0009.79,0003.55,0002.58
2022-06-29 17:15:00,,0829.3,5.00,0.00,29.3,28.0,00.0,38.0,31.2,16.3,0000.0,0009.96,0003.60,0002.59
2022-06-29 17:16:00,,0829.3,4.99,0.00,29.2,27.4,00.0,37.9,31.0,16.0,0000.0,0010.78,0003.62,0002.60
2022-06-29 17:17:00,,0829.3,5.00,0.00,29.2,27.1,00.0,37.9,30.9,16.1,0000.0,0010.11,0003.60,0002.59
2022-06-29 17:18:00,,0829.2,5.00,0.00,29.1,27.2,00.0,37.9,31.0,16.4,0000.0,0010.05,0003.63,0002.60
2022-06-29 17:19:00,,0829.2,5.00,0.00,29.1,27.3,00.0,37.9,31.0,16.1,0000.0,0010.41,0003.67,0002.60
2022-06-29 17:20:00,,0829.3,5.01,0.00,29.1,27.5,00.0,37.9,31.0,16.5,0000.0,0010.26,0003.66,0002.59
2022-06-29 17:21:00,,0829.3,5.01,0.00,29.1,27.7,00.0,37.9,31.1,16.5,0000.0,0010.31,0003.70,0002.59
2022-06-29 17:22:00,,0829.3,4.99,0.00,29.2,27.9,00.0,37.9,31.1,16.3,0000.0,0010.79,0003.65,0002.57
2022-06-29 17:23:00,,0829.3,5.01,0.00,29.2,28.1,00.0,37.9,31.2,16.7,0000.0,0010.90,0003.62,0002.58
2022-06-29 17:24:00,,0829.2,5.01,0.00,29.2,28.0,00.0,37.9,31.2,17.1,0000.0,0011.33,0003.65,0002.59
2022-06-29 17:25:00,,0829.2,5.00,0.00,29.2,27.3,00.0,37.9,31.0,17.1,0000.0,0011.87,0003.64,0002.58
2022-06-29 17:26:00,,0829.2,5.00,0.00,29.1,27.0,00.0,37.8,30.9,17.2,0000.0,0012.03,0003.60,0002.57
2022-06-29 17:27:00,,0829.1,5.00,0.00,29.1,27.0,00.0,37.8,30.9,17.4,0000.0,0010.99,0003.56,0002.57
2022-06-29 17:28:00,,0829.2,5.01,0.00,29.1,27.2,00.0,37.8,30.9,17.6,0000.0,0011.28,0003.58,0002.58
2022-06-29 17:29:00,,0829.2,5.00,0.00,29.1,27.4,00.0,37.8,31.0,17.9,0000.0,0010.93,0003.53,0002.57
2022-06-29 17:30:00,,0829.1,5.00,0.00,29.1,27.6,00.0,37.9,31.0,17.6,0000.0,0010.52,0003.49,0002.59
2022-06-29 17:31:00,,0829.1,5.00,0.00,29.1,27.8,00.0,37.9,31.1,17.5,0000.0,0010.28,0003.51,0002.63
2022-06-29 17:32:00,,0829.2,5.00,0.00,29.1,28.0,00.0,37.9,31.1,17.5,0000.0,0009.79,0003.47,0002.67
2022-06-29 17:33:00,,0829.3,4.99,0.00,29.2,28.0,00.0,37.9,31.1,17.3,0000.0,0009.12,0003.52,0002.72
2022-06-29 17:34:00,,0829.2,5.00,0.00,29.1,27.4,00.0,37.8,31.0,17.3,0000.0,0008.75,0003.52,0002.74
2022-06-29 17:35:00,,0829.2,4.99,0.00,29.1,27.1,00.0,37.8,30.9,17.2,0000.0,0008.26,0003.52,0002.76
2022-06-29 17:36:00,,0829.2,5.00,0.00,29.1,27.2,00.0,37.8,30.9,17.5,0000.0,0007.81,0003.55,0002.81
2022-06-29 17:37:00,,0829.2,5.00,0.00,29.1,27.3,00.0,37.8,30.9,17.7,0000.0,0007.64,0003.58,0002.85
2022-06-29 17:38:00,,0829.2,5.00,0.00,29.1,27.5,00.0,37.8,31.0,17.6,0000.0,0007.58,0003.60,0002.88
2022-06-29 17:39:00,,0829.2,5.01,0.00,29.1,27.7,00.0,37.8,31.0,17.2,0000.0,0007.05,0003.59,0002.89
2022-06-29 17:40:00,,0829.2,5.00,0.00,29.1,27.9,00.0,37.9,31.1,17.2,0000.0,0007.26,0003.61,0002.92
2022-06-29 17:41:00,,0829.2,5.00,0.00,29.1,28.0,00.0,37.9,31.1,17.8,0000.0,0007.47,0003.64,0002.94
2022-06-29 17:42:00,,0829.2,4.99,0.00,29.2,27.8,00.0,37.8,31.0,17.8,0000.0,0008.27,0003.64,0002.95
2022-06-29 17:43:00,,0829.1,5.00,0.00,29.1,27.2,00.0,37.8,30.9,17.5,0000.0,0008.71,0003.66,0002.94
2022-06-29 17:44:00,,0829.1,4.99,0.00,29.1,27.2,00.0,37.8,30.9,17.5,0000.0,0008.90,0003.68,0002.95
2022-06-29 17:45:00,,0829.2,5.00,0.00,29.1,27.3,00.0,37.8,30.9,17.5,0000.0,0009.09,0003.72,0002.96
2022-06-29 17:46:00,,0829.1,5.01,0.00,29.1,27.4,00.0,37.8,31.0,17.5,0000.0,0009.09,0003.72,0002.97
2022-06-29 17:47:00,,0829.1,4.99,0.00,29.1,27.6,00.0,37.8,31.0,17.6,0000.0,0009.26,0003.71,0002.97
2022-06-29 17:48:00,,0829.2,5.00,0.00,29.1,27.8,00.0,37.9,31.1,17.4,0000.0,0009.81,0003.70,0002.98
2022-06-29 17:49:00,,0829.1,5.00,0.00,29.1,28.0,00.0,37.9,31.1,16.9,0000.0,0010.03,0003.77,0003.00
2022-06-29 17:50:00,,0829.2,5.01,0.00,29.1,27.7,00.0,37.8,31.0,17.3,0000.0,0010.10,0003.83,0003.04
2022-06-29 17:51:00,,0829.1,5.01,0.00,29.1,27.1,00.0,37.8,30.9,17.7,0000.0,0010.10,0003.86,0003.06
2022-06-29 17:52:00,,0829.1,5.00,0.00,29.1,27.1,00.0,37.8,30.9,17.0,0000.0,0010.11,0003.88,0003.07
2022-06-29 17:53:00,,0829.1,5.00,0.00,29.1,27.2,00.0,37.8,30.9,17.3,0000.0,0009.36,0003.89,0003.08
2022-06-29 17:54:00,,0829.1,5.00,0.00,29.1,27.4,00.0,37.8,30.9,17.5,0000.0,0008.94,0003.87,0003.09
2022-06-29 17:55:00,,0829.1,5.00,0.00,29.1,27.6,00.0,37.8,31.0,17.2,0000.0,0009.54,0003.83,0003.07
2022-06-29 17:56:00,,0829.1,5.01,0.00,29.1,27.8,00.0,37.8,31.1,17.5,0000.0,0009.43,0003.78,0003.07
2022-06-29 17:57:00,,0829.1,4.99,0.00,29.1,28.0,00.0,37.8,31.1,17.6,0000.0,0009.49,0003.80,0003.08
2022-06-29 17:58:00,,0829.0,5.00,0.00,29.1,27.7,00.0,37.8,31.0,17.7,0000.0,0009.32,0003.83,0003.10
2022-06-29 17:59:00,,0829.0,5.00,0.00,29.1,27.2,00.0,37.8,30.9,17.3,0000.0,0008.56,0003.82,0003.12
